Regional Weather Roundup
Issued by NWS

Current Version | Previous Version | Text Only | Print | Product List | Glossary On
Versions: 1 2 3 4 5 6 7 8 9 10 11 12 13 14 15 16 17 18 19 20 21 22 23 24 25 26 27 28 29 30 31 32 33 34 35 36 37 38 39 40 41 42 43 44 45 46 47 48 49 50
664
ASUS44 KOUN 291610
RWROK

WEATHER ROUNDUP FOR OKLAHOMA
NATIONAL WEATHER SERVICE NORMAN OK
1100 AM CDT SUN MAY 29 2016

NOTE: "FAIR" INDICATES FEW OR NO CLOUDS BELOW 12,000 FEET WITH NO
      SIGNIFICANT WEATHER AND/OR OBSTRUCTIONS TO VISIBILITY.

OKZ001>007-009>012-014-015-017-291700-
NORTHWEST OKLAHOMA AND THE PANHANDLE

CITY           SKY/WX    TMP DP  RH WIND       PRES   REMARKS
GAGE           CLOUDY    68  56  65 NE8       30.22R
GUYMON         CLOUDY    64  60  87 S7        30.17R
ENID/WOODRING  PTSUNNY   82  63  51 S10       30.10F
$$

OKZ016-021>023-033>039-044-045-291700-
SOUTHWEST OKLAHOMA

CITY           SKY/WX    TMP DP  RH WIND       PRES   REMARKS
LAWTON/REGL    SUNNY     80  57  45 N3        30.14R
LAWTON/FT SILL SUNNY     79  61  53 S3        30.14R
CLINTON        SUNNY     79  54  41 VRB5      30.18S
HOBART         SUNNY     80  55  42 MISG      30.16S
ALTUS AFB      SUNNY     79  57  46 SE9       30.13S
$$

OKZ018>020-024>031-291700-
CENTRAL OKLAHOMA

CITY           SKY/WX    TMP DP  RH WIND       PRES   REMARKS
OKLAHOMA CITY  MOSUNNY   80  60  50 SW7       30.15F
OKC/WILEY POST MOSUNNY   80  59  48 SW12      30.15S
OKC/TINKER AFB SUNNY     79  58  47 W6        30.14F
STILLWATER     SUNNY     80  67  64 SW9G17    30.12F
GUTHRIE        SUNNY     82  61  48 VRB6      30.13F
$$

OKZ008-013-054>072-291700-
NORTHEAST OKLAHOMA

CITY           SKY/WX    TMP DP  RH WIND       PRES   REMARKS
TULSA          PTSUNNY   81  71  71 VRB3      30.11S
TULSA/JONES    CLOUDY    82  67  60 N3        30.12S
PONCA CITY     PTSUNNY   80  65  59 SW8       30.12F
BARTLESVILLE   SUNNY     83  72  69 S3        30.12F
MUSKOGEE       CLOUDY    79  70  74 S7        30.14S
$$

OKZ032-040>043-046>053-073>077-291700-
SOUTH CENTRAL/SOUTHEAST OKLAHOMA

CITY           SKY/WX    TMP DP  RH WIND       PRES   REMARKS
ARDMORE/DWNTWN CLOUDY    73  70  88 NE6       30.11S
MCALESTER      CLOUDY    79  72  79 CALM      30.16R
$$





USA.gov is the U.S. government's official web portal to all federal, state and local government web resources and services.